Fort Wayne, IN

6:45 AM EDT on August 20, 2019 (GMT -0400)
Fort Wayne International

Weather History for KFWA - June, 2019

Change the Weather History Date:

Friday, June 14, 2019

  Actual Average Record
Temperature  
Mean Temperature 64 °F 70 °F  
Max Temperature 78 °F 81 °F 97 °F (1988)
Min Temperature 50 °F 59 °F 42 °F (1959)
Degree Days  
Heating Degree Days 1 1  
Month to date heating degree days 18 23  
Since 1 June heating degree days 18 23  
Since 1 July heating degree days 5865 6095  
Cooling Degree Days 0 6  
Month to date cooling degree days 46 63  
Year to date cooling degree days 114 120  
Since 1 June cooling degree days 46 63  
Growing Degree Days 14 (Base 50)    
Moisture  
Dew Point 45 °F    
Average Humidity 52    
Maximum Humidity 77    
Minimum Humidity 27    
Precipitation  
Precipitation T in 0.13 in 1.05 in (1975)
Month to date precipitation 0.85 2.10  
Year to date precipitation 18.72 16.90  
Sea Level Pressure  
Sea Level Pressure 30.04 in    
Wind  
Wind Speed 14 mph (SW)    
Max Wind Speed 24 mph    
Max Gust Speed 31 mph    
Visibility 10 miles    
Events      
T = Trace of Precipitation, MM = Missing Value Source: NWS Daily Summary

Daily Weather History Graph

Daily Weather History Graph

Search for Another Location

Airport or City:

Astronomy

Jun. 14, 2019 Rise Set
Actual Time 6:08 AM EDT 9:14 PM EDT
Civil Twilight 5:34 AM EDT 9:47 PM EDT
Nautical Twilight 4:51 AM EDT 10:30 PM EDT
Astronomical Twilight 4:01 AM EDT 11:21 PM EDT
Moon 6:33 PM EDT (6/14) 4:27 AM EDT (6/14)
Length of Visible Light 16h 13m
Length of Day
15h 06m
Waxing Gibbous, 92% of the Moon is Illuminated
Jun 14
Waxing Gibbous
Jun 17
Full
Jun 25
Last Quarter
Jul 2
New
Jul 9
First Quarter

Hourly Weather History & Observations

Time (EDT) Temp. Dew Point Humidity Pressure Visibility Wind Dir Wind Speed Gust Speed Precip Events Conditions
12:54 AM 53.1 °F 45.0 °F 74% 30.02 in 10.0 mi West 9.2 mph - N/A   Partly Cloudy
1:54 AM 51.1 °F 45.0 °F 80% 30.02 in 10.0 mi WSW 9.2 mph - N/A   Partly Cloudy
2:54 AM 51.1 °F 45.0 °F 80% 30.03 in 10.0 mi WSW 9.2 mph - N/A   Partly Cloudy
3:54 AM 51.1 °F 45.0 °F 80% 30.04 in 10.0 mi WSW 9.2 mph - N/A   Partly Cloudy
4:54 AM 51.1 °F 45.0 °F 80% 30.06 in 10.0 mi WSW 10.4 mph - N/A   Partly Cloudy
5:54 AM 51.1 °F 45.0 °F 80% 30.07 in 10.0 mi WSW 10.4 mph - N/A   Partly Cloudy
6:54 AM 52.0 °F 45.0 °F 77% 30.09 in 10.0 mi WSW 9.2 mph - N/A   Partly Cloudy
7:54 AM 55.9 °F 46.0 °F 69% 30.11 in 10.0 mi WSW 9.2 mph - N/A   Partly Cloudy
8:54 AM 61.0 °F 48.0 °F 62% 30.12 in 10.0 mi WSW 11.5 mph - N/A   Partly Cloudy
9:54 AM 66.0 °F 50.0 °F 56% 30.13 in 10.0 mi WSW 12.7 mph - N/A   Partly Cloudy
10:54 AM 69.1 °F 48.9 °F 49% 30.11 in 10.0 mi SW 12.7 mph - N/A   Partly Cloudy
11:54 AM 71.1 °F 50.0 °F 47% 30.11 in 10.0 mi West 16.1 mph - N/A   Partly Cloudy
12:54 PM 72.0 °F 45.0 °F 38% 30.09 in 10.0 mi SW 15.0 mph 23.0 mph N/A   Partly Cloudy
1:54 PM 75.0 °F 42.1 °F 31% 30.06 in 10.0 mi WSW 16.1 mph 24.2 mph N/A   Scattered Clouds
2:54 PM 77.0 °F 44.1 °F 31% 30.04 in 10.0 mi SSW 18.4 mph 27.6 mph N/A   Scattered Clouds
3:54 PM 77.0 °F 42.1 °F 29% 30.01 in 10.0 mi SSW 17.3 mph 27.6 mph N/A   Scattered Clouds
4:54 PM 78.1 °F 41.0 °F 27% 29.99 in 10.0 mi SSW 16.1 mph 28.8 mph N/A   Scattered Clouds
5:54 PM 75.9 °F 42.1 °F 30% 29.96 in 10.0 mi SW 13.8 mph 29.9 mph N/A   Mostly Cloudy
6:54 PM 75.9 °F 44.1 °F 32% 29.95 in 10.0 mi SW 13.8 mph 26.5 mph N/A   Mostly Cloudy
7:54 PM 73.9 °F 44.1 °F 34% 29.94 in 10.0 mi SSW 19.6 mph - N/A   Mostly Cloudy
8:54 PM 71.1 °F 45.0 °F 39% 29.95 in 10.0 mi SSW 19.6 mph 28.8 mph N/A   Mostly Cloudy
9:54 PM 68.0 °F 46.9 °F 47% 29.95 in 10.0 mi SSW 13.8 mph - N/A   Mostly Cloudy